Home   Weather   Chur   Past weeks

Flag for Switzerland Past Weather in Chur, Graubünden, Switzerland — Yesterday and Last 2 Weeks

Now
64 °F

Fog.


Feels Like: 64 °F
Forecast: 57 / 86 °F
Wind: 1 mph from South

Location: Chur

Current Time: Sep 1, 2016 at 5:44:38 AM

Latest Report: Sep 1, 2016 at 5:00 AM


Visibility: 4 mi

Pressure: 30.19 "Hg (28.16 "Hg at 592m altitude)

Humidity: 83%

Dew Point: 58 °F

Location of ChurLocation

Past Weather in Chur — Graph

°F

Chur Temperature Yesterday

Maximum temperature yesterday: 78 °F (at 2:00 PM)
Minimum temperature yesterday: 61 °F (at 8:00 AM)
Average temperature yesterday: 69 °F

High & Low Weather Summary for the Past Weeks

 TemperatureHumidityPressure
High88 °F (Aug 26, 4:00 PM)98% (Aug 17, 5:00 AM)30.43 "Hg (Aug 17, 5:00 AM)
Low52 °F (Aug 22, 8:00 AM)36% (Aug 28, 5:00 PM)29.76 "Hg (Aug 18, 3:00 PM)
Average68 °F73%30.08 "Hg
* Reported Aug 17 4:00 AM — Sep 1 4:00 AM, Chur, Weather by CustomWeather, © 2016

Note: Actual official high and low records may vary slightly from our data, if they occured in-between our weather recording intervals... More about our weather records

Advertising

Chur Weather History for the Previous 24 Hours

Scroll right to see more
 ConditionsComfort  
Time TempWeatherWind HumidityBarometerVisibility
4:00 AM
Thu, Sep 1
63 °FMild.1 mph89%30.19 "HgN/A
3:00 AM63 °FMild.1 mph85%30.19 "HgN/A
2:00 AM64 °FFog.2 mph90%30.19 "Hg4 mi
1:00 AM64 °FMild.2 mph81%30.17 "HgN/A
12:00 AM64 °FMild.1 mph88%30.18 "HgN/A
11:00 PM
Wed, Aug 31
65 °FFog.No wind88%30.16 "Hg9 mi
10:00 PM67 °FMild.No wind86%30.14 "HgN/A
9:00 PM70 °FMild.1 mph81%30.11 "HgN/A
8:00 PM71 °FScattered clouds.6 mph79%30.07 "Hg11 mi
7:00 PM72 °FMild.8 mph74%30.05 "HgN/A
6:00 PM74 °FMild.12 mph66%30.04 "HgN/A
5:00 PM76 °FMild.12 mph62%30.03 "HgN/A
4:00 PM78 °FWarm.15 mph59%30.03 "HgN/A
2:00 PM78 °FPartly sunny.9 mph53%30.04 "Hg12 mi
1:00 PM76 °FMild.8 mph56%30.06 "HgN/A
12:00 PM76 °FMild.2 mph52%30.07 "HgN/A
11:00 AM73 °FMild.3 mph55%30.09 "HgN/A
10:00 AM70 °FMild.3 mph60%30.11 "HgN/A
9:00 AM65 °FMild.1 mph72%30.13 "HgN/A
8:00 AM61 °FPassing clouds.1 mph80%30.15 "Hg11 mi
7:00 AM62 °FCool.5 mph79%30.15 "HgN/A
6:00 AM62 °FCool.7 mph79%30.14 "HgN/A
5:00 AM63 °FPassing clouds.5 mph77%30.14 "Hg12 mi
Weather by CustomWeather, © 2016

See weather overviewHow to use our weather pages